Home   Weather   New Melbourne   Past weeks
Flag for Canada

Past Weather in New Melbourne, Newfoundland and Labrador, Canada — Yesterday and Last 2 Weeks

Now
55 °F

Clear.


Feels Like: 52 °F
Forecast: 72 / 56 °F
Wind: 15 mph from West

Location: St. John's

Current Time: Jul 19, 2019 at 3:31:34 am

Latest Report: Jul 19, 2019 at 2:30 am


Visibility: 15 mi

Pressure: 29.70 "Hg

Humidity: 77%

Dew Point: 48 °F

Location of New MelbourneLocation

Past Weather in New Melbourne — Graph

°F

New Melbourne Temperature Yesterday

Maximum temperature yesterday: 72 °F (at 4:30 pm)
Minimum temperature yesterday: 57 °F (at 7:54 am)
Average temperature yesterday: 62 °F

High & Low Weather Summary for the Past Weeks

 TemperatureHumidityPressure
High75 °F (Jul 7, 4:30 pm)100% (Jul 4, 2:50 am)30.13 "Hg (Jul 4, 2:50 am)
Low45 °F (Jul 11, 12:40 am)36% (Jul 8, 2:30 pm)29.44 "Hg (Jul 7, 9:30 am)
Average55 °F88%29.82 "Hg
* Reported Jul 4 1:30 am — Jul 19 1:30 am, New Melbourne. Weather by CustomWeather, © 2019

Note: Actual official high and low records may vary slightly from our data, if they occured in-between our weather recording intervals... More about our weather records

Advertising

New Melbourne Weather History for the Previous 24 Hours

Scroll right to see more
 ConditionsComfort  
Time TempWeatherWind HumidityBarometerVisibility
1:30 am
Fri, Jul 19
57 °FPassing clouds.15 mph67%29.70 "Hg15 mi
12:30 am57 °FPassing clouds.12 mph72%29.70 "Hg15 mi
11:30 pm
Thu, Jul 18
57 °FPassing clouds.14 mph77%29.70 "Hg15 mi
10:30 pm57 °FPassing clouds.10 mph77%29.70 "Hg15 mi
9:30 pm59 °FPassing clouds.14 mph72%29.67 "Hg15 mi
8:30 pm63 °FPassing clouds.12 mph59%29.65 "Hg15 mi
7:30 pm66 °FPassing clouds.13 mph49%29.63 "Hg15 mi
6:30 pm70 °FPassing clouds.22 mph43%29.60 "Hg15 mi
5:30 pm72 °FScattered clouds.20 mph50%29.58 "Hg15 mi
4:30 pm72 °FScattered clouds.20 mph57%29.56 "Hg15 mi
3:30 pm70 °FPartly sunny.23 mph69%29.55 "Hg15 mi
2:30 pm70 °FPartly sunny.17 mph73%29.54 "Hg15 mi
1:30 pm68 °FPartly sunny.21 mph78%29.54 "Hg15 mi
12:30 pm63 °FPartly sunny.24 mph94%29.52 "Hg15 mi
11:30 am61 °FLow clouds.25 mph94%29.52 "Hg15 mi
10:30 am59 °FLow clouds.26 mph94%29.51 "Hg15 mi
10:20 am57 °FLow clouds.30 mph100%29.50 "Hg15 mi
9:30 am61 °FSprinkles. Mostly cloudy.23 mph94%29.50 "Hg3 mi
9:13 am59 °FSprinkles. Mostly cloudy.20 mph100%29.52 "Hg3 mi
8:45 am57 °FSprinkles. Low clouds.14 mph100%29.54 "Hg10 mi
8:30 am57 °FRain showers. Low clouds.20 mph100%29.55 "Hg8 mi
7:54 am57 °FRain showers. Low clouds.14 mph100%29.59 "Hg8 mi
7:30 am59 °FLight rain. Mostly cloudy.14 mph94%29.62 "Hg10 mi
6:47 am59 °FLight rain. Mostly cloudy.15 mph100%29.65 "Hg10 mi
6:06 am61 °FLight rain. Fog.13 mph94%29.69 "Hg8 mi
5:48 am61 °FMostly cloudy.15 mph94%29.70 "Hg15 mi
5:00 am61 °FMostly cloudy.14 mph94%29.73 "Hg15 mi
4:30 am63 °FMostly cloudy.14 mph88%29.75 "Hg15 mi
3:56 am63 °FMostly cloudy.12 mph88%29.77 "Hg15 mi
3:30 am61 °FMostly cloudy.12 mph83%29.78 "Hg15 mi
Weather by CustomWeather, © 2019

See weather overview